Time,TemperatureF,DewpointF,PressureIn,WindDirection,WindDirectionDegrees,WindSpeedMPH,WindSpeedGustMPH,Humidity,HourlyPrecipIn,Conditions,Clouds,dailyrainin,SoftwareType,DateUTC
2013-01-12 00:00:00,50.2,47.4,29.63,South,180,6.0,18.0,90,0.00,,---,0.00,VWS V14.00,2013-01-12 06:00:00,
2013-01-12 00:30:00,50.4,47.3,29.62,South,180,6.0,17.0,89,0.00,,---,0.00,VWS V14.00,2013-01-12 06:30:00,
2013-01-12 01:00:00,50.2,47.1,29.63,South,180,6.0,15.0,89,0.00,,---,0.00,VWS V14.00,2013-01-12 07:00:00,
2013-01-12 01:30:00,49.8,46.7,29.64,South,180,6.0,15.0,89,0.00,,---,0.00,VWS V14.00,2013-01-12 07:30:00,
2013-01-12 02:00:00,50.5,47.1,29.65,South,180,6.0,15.0,88,0.00,,---,0.00,VWS V14.00,2013-01-12 08:00:00,
2013-01-12 02:30:00,50.4,46.7,29.66,South,180,6.0,14.0,87,0.00,,---,0.00,VWS V14.00,2013-01-12 08:30:00,
2013-01-12 03:00:00,50.3,46.9,29.66,South,180,6.0,16.0,88,0.00,,---,0.00,VWS V14.00,2013-01-12 09:00:00,
2013-01-12 03:30:00,50.0,46.6,29.66,South,180,6.0,17.0,88,0.00,,---,0.00,VWS V14.00,2013-01-12 09:30:00,
2013-01-12 04:00:00,50.7,47.0,29.66,South,180,7.0,18.0,87,0.00,,---,0.00,VWS V14.00,2013-01-12 10:00:00,
2013-01-12 04:30:00,50.7,47.0,29.66,South,180,6.0,17.0,87,0.00,,---,0.00,VWS V14.00,2013-01-12 10:30:00,
2013-01-12 05:00:00,50.1,46.4,29.67,South,180,6.0,15.0,87,0.00,,---,0.00,VWS V14.00,2013-01-12 11:00:00,
2013-01-12 05:30:00,50.1,46.4,29.69,South,180,6.0,15.0,87,0.00,,---,0.00,VWS V14.00,2013-01-12 11:30:00,
2013-01-12 06:00:00,49.7,45.4,29.72,South,180,3.0,13.0,85,0.00,,---,0.00,VWS V14.00,2013-01-12 12:00:00,
2013-01-12 06:30:00,45.0,39.8,29.75,South,180,3.0,16.0,82,0.00,,---,0.00,VWS V14.00,2013-01-12 12:30:00,
2013-01-12 07:00:00,41.5,36.1,29.78,WSW,248,2.0,15.0,81,0.00,,---,0.00,VWS V14.00,2013-01-12 13:00:00,
2013-01-12 07:30:00,38.6,34.2,29.81,WSW,248,3.0,15.0,84,0.00,,---,0.00,VWS V14.00,2013-01-12 13:30:00,
2013-01-12 08:00:00,36.8,33.3,29.84,SW,225,2.0,11.0,87,0.00,,---,0.00,VWS V14.00,2013-01-12 14:00:00,
2013-01-12 08:30:00,35.8,31.7,29.86,WSW,248,1.0,12.0,85,0.00,,---,0.00,VWS V14.00,2013-01-12 14:30:00,
2013-01-12 09:00:00,34.8,31.0,29.87,SSW,202,1.0,8.0,86,0.00,,---,0.00,VWS V14.00,2013-01-12 15:00:00,
2013-01-12 09:30:00,34.3,30.8,29.88,WSW,248,2.0,10.0,87,0.00,,---,0.00,VWS V14.00,2013-01-12 15:30:00,
2013-01-12 10:00:00,34.4,30.4,29.91,WSW,248,1.0,11.0,85,0.00,,---,0.00,VWS V14.00,2013-01-12 16:00:00,
2013-01-12 10:30:00,33.8,29.8,29.92,WSW,248,2.0,13.0,85,0.00,,---,0.00,VWS V14.00,2013-01-12 16:30:00,
2013-01-12 11:00:00,35.3,30.4,29.91,WSW,248,3.0,13.0,82,0.00,,---,0.00,VWS V14.00,2013-01-12 17:00:00,
2013-01-12 11:30:00,34.1,28.9,29.92,WSW,248,2.0,13.0,81,0.00,,---,0.00,VWS V14.00,2013-01-12 17:30:00,
2013-01-12 12:00:00,32.8,26.4,29.92,WSW,248,2.0,8.0,77,0.00,,---,0.00,VWS V14.00,2013-01-12 18:00:00,
2013-01-12 12:30:00,31.7,25.0,29.92,South,180,2.0,13.0,76,0.00,,---,0.00,VWS V14.00,2013-01-12 18:30:00,
2013-01-12 13:00:00,31.3,25.9,29.94,WSW,248,3.0,13.0,80,0.00,,---,0.00,VWS V14.00,2013-01-12 19:00:00,
2013-01-12 13:30:00,31.8,25.4,29.92,WSW,248,2.0,12.0,77,0.00,,---,0.00,VWS V14.00,2013-01-12 19:30:00,
2013-01-12 14:00:00,31.8,26.0,29.93,WSW,248,2.0,14.0,79,0.00,,---,0.00,VWS V14.00,2013-01-12 20:00:00,
2013-01-12 14:30:00,31.6,26.1,29.93,WSW,248,2.0,11.0,80,0.00,,---,0.00,VWS V14.00,2013-01-12 20:30:00,
2013-01-12 15:00:00,31.2,25.5,29.94,WSW,248,3.0,13.0,79,0.00,,---,0.00,VWS V14.00,2013-01-12 21:00:00,
2013-01-12 15:33:00,30.7,24.0,29.97,SW,224,2.0,8.0,76,0.00,,---,0.00,VWS V14.00,2013-01-12 21:33:00,
2013-01-12 15:38:00,30.6,23.6,29.97,West,267,1.0,10.0,75,0.00,,---,0.00,VWS V14.00,2013-01-12 21:38:00,
2013-01-12 15:43:00,30.5,23.5,29.98,SW,230,5.0,10.0,75,0.00,,---,0.00,VWS V14.00,2013-01-12 21:43:00,
2013-01-12 15:48:00,30.4,23.8,29.99,SW,229,0.0,10.0,76,0.00,,---,0.00,VWS V14.00,2013-01-12 21:48:00,
2013-01-12 15:53:00,30.4,24.1,29.99,SW,230,0.0,10.0,77,0.00,,---,0.00,VWS V14.00,2013-01-12 21:53:00,
2013-01-12 15:59:00,30.4,24.1,29.99,West,268,0.0,10.0,77,0.00,,---,0.00,VWS V14.00,2013-01-12 21:59:00,
2013-01-12 16:04:00,30.4,24.1,29.98,WSW,246,0.0,4.0,77,0.00,,---,0.00,VWS V14.00,2013-01-12 22:04:00,
2013-01-12 16:09:00,30.4,24.1,29.97,WSW,241,2.0,4.0,77,0.00,,---,0.00,VWS V14.00,2013-01-12 22:09:00,
2013-01-12 16:14:00,30.3,24.3,29.97,SW,236,0.0,6.0,78,0.00,,---,0.00,VWS V14.00,2013-01-12 22:14:00,
2013-01-12 16:19:00,30.3,24.3,29.97,WSW,249,0.0,6.0,78,0.00,,---,0.00,VWS V14.00,2013-01-12 22:19:00,
2013-01-12 16:24:00,30.2,24.5,29.97,WSW,245,3.0,7.0,79,0.00,,---,0.00,VWS V14.00,2013-01-12 22:24:00,
2013-01-12 16:29:00,30.1,24.1,29.96,WSW,249,2.0,7.0,78,0.00,,---,0.00,VWS V14.00,2013-01-12 22:29:00,
2013-01-12 16:34:00,29.9,24.2,29.97,WSW,247,1.0,4.0,79,0.00,,---,0.00,VWS V14.00,2013-01-12 22:34:00,
2013-01-12 16:40:00,29.8,24.1,29.97,WNW,296,4.0,5.0,79,0.00,,---,0.00,VWS V14.00,2013-01-12 22:40:00,
2013-01-12 16:45:00,29.6,23.3,29.97,WSW,245,0.0,6.0,77,0.00,,---,0.00,VWS V14.00,2013-01-12 22:45:00,
2013-01-12 16:50:00,29.5,23.2,29.96,West,267,1.0,6.0,77,0.00,,---,0.00,VWS V14.00,2013-01-12 22:50:00,
2013-01-12 16:55:00,29.3,23.0,29.96,WSW,246,0.0,6.0,77,0.00,,---,0.00,VWS V14.00,2013-01-12 22:55:00,
2013-01-12 17:00:00,29.2,22.9,29.96,SW,236,1.0,1.0,77,0.00,,---,0.00,VWS V14.00,2013-01-12 23:00:00,
2013-01-12 17:05:00,29.1,22.8,29.95,West,259,0.0,6.0,77,0.00,,---,0.00,VWS V14.00,2013-01-12 23:05:00,
2013-01-12 17:10:00,29.0,22.7,29.95,WSW,253,2.0,6.0,77,0.00,,---,0.00,VWS V14.00,2013-01-12 23:10:00,
2013-01-12 17:15:00,28.9,22.9,29.96,West,259,5.0,6.0,78,0.00,,---,0.00,VWS V14.00,2013-01-12 23:15:00,
2013-01-12 17:20:00,28.9,22.9,29.94,West,275,1.0,6.0,78,0.00,,---,0.00,VWS V14.00,2013-01-12 23:20:00,
2013-01-12 17:26:00,28.8,22.8,29.94,WSW,248,0.0,6.0,78,0.00,,---,0.00,VWS V14.00,2013-01-12 23:26:00,
2013-01-12 17:31:00,28.7,22.4,29.94,SW,227,0.0,2.0,77,0.00,,---,0.00,VWS V14.00,2013-01-12 23:31:00,
2013-01-12 17:36:00,28.7,22.4,29.94,WSW,246,0.0,4.0,77,0.00,,---,0.00,VWS V14.00,2013-01-12 23:36:00,
2013-01-12 17:41:00,28.6,22.6,29.93,NNW,338,0.0,4.0,78,0.00,,---,0.00,VWS V14.00,2013-01-12 23:41:00,
2013-01-12 17:46:00,28.6,22.6,29.93,West,263,0.0,4.0,78,0.00,,---,0.00,VWS V14.00,2013-01-12 23:46:00,
2013-01-12 17:51:00,28.6,22.9,29.93,WSW,257,0.0,4.0,79,0.00,,---,0.00,VWS V14.00,2013-01-12 23:51:00,
2013-01-12 17:56:00,28.5,22.5,29.92,West,261,0.0,4.0,78,0.00,,---,0.00,VWS V14.00,2013-01-12 23:56:00,
2013-01-12 18:02:00,28.5,22.8,29.93,West,274,0.0,1.0,79,0.00,,---,0.00,VWS V14.00,2013-01-13 00:02:00,
2013-01-12 18:07:00,28.5,23.1,29.92,NW,306,1.0,2.0,80,0.00,,---,0.00,VWS V14.00,2013-01-13 00:07:00,
2013-01-12 18:12:00,28.5,23.1,29.92,NW,308,3.0,4.0,80,0.00,,---,0.00,VWS V14.00,2013-01-13 00:12:00,
2013-01-12 18:17:00,28.5,22.8,29.94,WSW,251,3.0,5.0,79,0.00,,---,0.00,VWS V14.00,2013-01-13 00:17:00,
2013-01-12 18:22:00,28.5,23.1,29.93,West,259,1.0,5.0,80,0.00,,---,0.00,VWS V14.00,2013-01-13 00:22:00,
2013-01-12 18:27:00,28.5,22.8,29.94,West,264,1.0,6.0,79,0.00,,---,0.00,VWS V14.00,2013-01-13 00:27:00,
2013-01-12 18:32:00,28.5,22.8,29.95,WSW,252,3.0,5.0,79,0.00,,---,0.00,VWS V14.00,2013-01-13 00:32:00,
2013-01-12 18:37:00,28.4,22.7,29.95,WSW,249,2.0,8.0,79,0.00,,---,0.00,VWS V14.00,2013-01-13 00:37:00,
2013-01-12 18:43:00,28.4,23.0,29.95,West,271,0.0,8.0,80,0.00,,---,0.00,VWS V14.00,2013-01-13 00:43:00,
2013-01-12 18:48:00,28.4,23.0,29.95,WNW,292,1.0,8.0,80,0.00,,---,0.00,VWS V14.00,2013-01-13 00:48:00,
2013-01-12 18:53:00,28.3,22.9,29.95,WSW,248,0.0,8.0,80,0.00,,---,0.00,VWS V14.00,2013-01-13 00:53:00,
2013-01-12 18:58:00,28.3,22.9,29.95,West,271,1.0,8.0,80,0.00,,---,0.00,VWS V14.00,2013-01-13 00:58:00,
2013-01-12 19:03:00,28.1,22.4,29.96,WSW,243,0.0,7.0,79,0.00,,---,0.00,VWS V14.00,2013-01-13 01:03:00,
2013-01-12 19:08:00,28.0,22.6,29.96,West,269,0.0,7.0,80,0.00,,---,0.00,VWS V14.00,2013-01-13 01:08:00,
2013-01-12 19:13:00,28.0,22.6,29.98,WSW,258,2.0,7.0,80,0.00,,---,0.00,VWS V14.00,2013-01-13 01:13:00,
2013-01-12 19:18:00,27.9,22.5,29.98,West,279,4.0,7.0,80,0.00,,---,0.00,VWS V14.00,2013-01-13 01:18:00,
2013-01-12 19:24:00,28.0,22.6,29.98,WSW,246,0.0,7.0,80,0.00,,---,0.00,VWS V14.00,2013-01-13 01:24:00,
2013-01-12 19:29:00,27.9,22.5,29.99,SW,229,0.0,7.0,80,0.00,,---,0.00,VWS V14.00,2013-01-13 01:29:00,
2013-01-12 19:34:00,27.9,22.2,29.99,WSW,252,1.0,2.0,79,0.00,,---,0.00,VWS V14.00,2013-01-13 01:34:00,
2013-01-12 19:39:00,27.9,22.2,30.00,WSW,246,1.0,4.0,79,0.00,,---,0.00,VWS V14.00,2013-01-13 01:39:00,
2013-01-12 19:44:00,27.9,22.2,30.00,WSW,251,0.0,4.0,79,0.00,,---,0.00,VWS V14.00,2013-01-13 01:44:00,
2013-01-12 19:49:00,27.9,22.2,30.01,WSW,241,0.0,4.0,79,0.00,,---,0.00,VWS V14.00,2013-01-13 01:49:00,
2013-01-12 19:54:00,27.9,22.2,30.01,WSW,245,1.0,4.0,79,0.00,,---,0.00,VWS V14.00,2013-01-13 01:54:00,
2013-01-12 20:00:00,27.9,22.5,30.00,WNW,301,0.0,5.0,80,0.00,,---,0.00,VWS V14.00,2013-01-13 02:00:00,
2013-01-12 20:05:00,27.9,22.2,30.00,SW,223,2.0,5.0,79,0.00,,---,0.00,VWS V14.00,2013-01-13 02:05:00,
2013-01-12 20:10:00,27.8,22.1,30.00,WSW,239,5.0,5.0,79,0.00,,---,0.00,VWS V14.00,2013-01-13 02:10:00,
2013-01-12 20:15:00,27.8,21.9,30.00,West,267,0.0,5.0,78,0.00,,---,0.00,VWS V14.00,2013-01-13 02:15:00,
2013-01-12 20:20:00,27.7,22.0,30.00,WSW,258,0.0,5.0,79,0.00,,---,0.00,VWS V14.00,2013-01-13 02:20:00,
2013-01-12 20:25:00,27.7,22.0,30.00,WSW,252,2.0,5.0,79,0.00,,---,0.00,VWS V14.00,2013-01-13 02:25:00,
2013-01-12 20:31:00,27.5,21.5,30.00,SW,226,3.0,4.0,78,0.00,,---,0.00,VWS V14.00,2013-01-13 02:31:00,
2013-01-12 20:36:00,27.5,21.5,30.00,West,260,3.0,5.0,78,0.00,,---,0.00,VWS V14.00,2013-01-13 02:36:00,
2013-01-12 20:41:00,27.4,21.5,29.99,West,273,0.0,5.0,78,0.00,,---,0.00,VWS V14.00,2013-01-13 02:41:00,
2013-01-12 20:46:00,27.3,21.7,29.99,WSW,240,1.0,5.0,79,0.00,,---,0.00,VWS V14.00,2013-01-13 02:46:00,
2013-01-12 20:51:00,27.1,20.9,29.99,WSW,246,2.0,6.0,77,0.00,,---,0.00,VWS V14.00,2013-01-13 02:51:00,
2013-01-12 20:56:00,27.0,20.8,29.98,West,271,1.0,7.0,77,0.00,,---,0.00,VWS V14.00,2013-01-13 02:56:00,
2013-01-12 21:01:00,26.9,20.7,29.98,West,264,0.0,4.0,77,0.00,,---,0.00,VWS V14.00,2013-01-13 03:01:00,
2013-01-12 21:07:00,26.8,20.9,29.98,WSW,256,0.0,6.0,78,0.00,,---,0.00,VWS V14.00,2013-01-13 03:07:00,
2013-01-12 21:12:00,26.7,20.8,29.97,WSW,257,0.0,8.0,78,0.00,,---,0.00,VWS V14.00,2013-01-13 03:12:00,
2013-01-12 21:17:00,26.7,21.1,29.96,WNW,284,4.0,8.0,79,0.00,,---,0.00,VWS V14.00,2013-01-13 03:17:00,
2013-01-12 21:22:00,26.6,20.4,29.96,WSW,246,3.0,9.0,77,0.00,,---,0.00,VWS V14.00,2013-01-13 03:22:00,
2013-01-12 21:27:00,26.4,20.8,29.95,NNW,333,2.0,10.0,79,0.00,,---,0.00,VWS V14.00,2013-01-13 03:27:00,
2013-01-12 21:32:00,26.2,21.2,29.94,NW,309,10.0,15.0,81,0.00,,---,0.00,VWS V14.00,2013-01-13 03:32:00,
2013-01-12 21:38:00,25.7,21.5,29.93,WNW,297,5.0,15.0,84,0.00,,---,0.00,VWS V14.00,2013-01-13 03:38:00,
2013-01-12 21:43:00,25.2,21.6,29.93,WNW,288,4.0,15.0,86,0.00,,---,0.00,VWS V14.00,2013-01-13 03:43:00,
2013-01-12 21:48:00,24.9,21.6,29.92,NW,323,0.0,15.0,87,0.00,,---,0.00,VWS V14.00,2013-01-13 03:48:00,
2013-01-12 21:53:00,24.7,21.7,29.92,WSW,243,2.0,15.0,88,0.00,,---,0.00,VWS V14.00,2013-01-13 03:53:00,
2013-01-12 21:58:00,24.6,21.6,29.92,NW,304,4.0,15.0,88,0.00,,---,0.00,VWS V14.00,2013-01-13 03:58:00,
2013-01-12 22:03:00,24.5,21.7,29.92,NW,325,2.0,10.0,89,0.00,,---,0.00,VWS V14.00,2013-01-13 04:03:00,
2013-01-12 22:08:00,24.5,21.7,29.92,NNW,331,7.0,10.0,89,0.00,,---,0.00,VWS V14.00,2013-01-13 04:08:00,
2013-01-12 22:14:00,24.5,21.7,29.92,NNW,333,4.0,15.0,89,0.00,,---,0.00,VWS V14.00,2013-01-13 04:14:00,
2013-01-12 22:19:00,24.4,21.6,29.91,NW,321,2.0,15.0,89,0.00,,---,0.00,VWS V14.00,2013-01-13 04:19:00,
2013-01-12 22:24:00,24.4,21.6,29.92,NNW,341,4.0,15.0,89,0.00,,---,0.00,VWS V14.00,2013-01-13 04:24:00,
2013-01-12 22:29:00,24.3,21.3,29.92,WNW,296,2.0,15.0,88,0.00,,---,0.00,VWS V14.00,2013-01-13 04:29:00,
2013-01-12 22:34:00,24.2,21.4,29.92,WNW,296,2.0,11.0,89,0.00,,---,0.00,VWS V14.00,2013-01-13 04:34:00,
2013-01-12 22:39:00,24.1,21.1,29.93,SW,231,6.0,12.0,88,0.00,,---,0.00,VWS V14.00,2013-01-13 04:39:00,
2013-01-12 22:45:00,24.0,21.0,29.93,WNW,293,3.0,12.0,88,0.00,,---,0.00,VWS V14.00,2013-01-13 04:45:00,
2013-01-12 22:50:00,24.0,20.7,29.93,NW,306,4.0,14.0,87,0.00,,---,0.00,VWS V14.00,2013-01-13 04:50:00,
2013-01-12 22:55:00,23.9,20.6,29.94,WNW,290,6.0,14.0,87,0.00,,---,0.00,VWS V14.00,2013-01-13 04:55:00,
2013-01-12 23:00:00,23.9,20.6,29.94,WNW,292,2.0,5.0,87,0.00,,---,0.00,VWS V14.00,2013-01-13 05:00:00,
2013-01-12 23:04:00,24.0,20.7,29.94,WNW,300,3.0,9.0,87,0.00,,---,0.00,VWS V14.00,2013-01-13 05:04:00,
2013-01-12 23:06:00,24.0,20.7,29.94,NNW,332,2.0,9.0,87,0.00,,---,0.00,VWS V14.00,2013-01-13 05:06:00,
2013-01-12 23:07:00,24.0,20.7,29.94,NNW,331,3.0,9.0,87,0.00,,---,0.00,VWS V14.00,2013-01-13 05:07:00,
2013-01-12 23:12:00,24.0,21.0,29.93,West,273,0.0,9.0,88,0.00,,---,0.00,VWS V14.00,2013-01-13 05:12:00,
2013-01-12 23:17:00,24.1,21.1,29.94,WSW,252,3.0,9.0,88,0.00,,---,0.00,VWS V14.00,2013-01-13 05:17:00,
2013-01-12 23:22:00,23.8,20.5,29.94,NNW,332,3.0,9.0,87,0.00,,---,0.00,VWS V14.00,2013-01-13 05:22:00,
2013-01-12 23:27:00,23.6,20.3,29.95,NNW,327,4.0,9.0,87,0.00,,---,0.00,VWS V14.00,2013-01-13 05:27:00,
2013-01-12 23:32:00,23.5,20.5,29.97,WSW,251,0.0,6.0,88,0.00,,---,0.00,VWS V14.00,2013-01-13 05:32:00,
2013-01-12 23:37:00,23.5,20.7,29.96,SW,234,3.0,7.0,89,0.00,,---,0.00,VWS V14.00,2013-01-13 05:37:00,
2013-01-12 23:43:00,23.3,20.5,29.95,West,276,0.0,9.0,89,0.00,,---,0.00,VWS V14.00,2013-01-13 05:43:00,
2013-01-12 23:48:00,23.2,20.7,29.96,NW,318,1.0,9.0,90,0.00,,---,0.00,VWS V14.00,2013-01-13 05:48:00,
2013-01-12 23:53:00,23.1,20.6,29.95,West,267,1.0,9.0,90,0.00,,---,0.00,VWS V14.00,2013-01-13 05:53:00,
2013-01-12 23:58:00,23.0,20.5,29.94,NNW,338,3.0,9.0,90,0.00,,---,0.00,VWS V14.00,2013-01-13 05:58:00,